Regional Weather Roundup
Issued by NWS Northern Indiana

Home | Current Version | Previous Version | Text Only | Print | Product List | Glossary On
Versions: 1 2 3 4 5 6 7 8 9 10 11 12 13 14 15 16 17 18 19 20 21 22 23 24 25 26 27 28 29 30 31 32 33 34 35 36 37 38 39 40 41 42 43 44 45 46 47 48 49 50
982
ASUS43 KIWX 231110
RWRIWX

KIWX WEATHER ROUNDUP
NATIONAL WEATHER SERVICE NORTHERN INDIANA
700 AM EDT SAT JUL 23 2016

NOTE: "FAIR" INDICATES FEW OR NO CLOUDS BELOW 12,000 FEET WITH NO
SIGNIFICANT WEATHER AND/OR OBSTRUCTIONS TO VISIBILITY.

* THESE STATIONS ARE NOT UNDER NWS QUALITY CONTROL. THEY ALSO MAY NOT
  REPORT WEATHER SUCH AS PRECIPITATION OR FOG.

INZ001>027-231200-
NORTHERN INDIANA

CITY           SKY/WX    TMP DP  RH WIND       PRES   REMARKS
GARY*          MOCLDY    79  79 100 CALM      29.98S
VALPARAISO     LGT RAIN  75  73  93 SW3       30.00R
MICHIGAN CITY*   N/A     72  72 100 CALM      29.99S FOG
LAPORTE*       FOG      N/A N/A N/A CALM      30.00R VSB 1/2
KNOX*            N/A     70  68  94 CALM      29.99S VSB 1
SOUTH BEND     CLEAR     72  72 100 CALM      29.99F FOG
GOSHEN         FOG       69  67  93 CALM      30.00S VSB<1/4
MONTICELLO*    CLEAR     71  67  88 CALM      29.99S
LOGANSPORT*    FOG       68  68 100 CALM      30.01S VSB 1/4
ROCHESTER*     CLEAR     72  72 100 CALM      30.00S
WARSAW*        FOG       70  70 100 CALM      30.00F VSB 1/4
ANGOLA*          N/A     66  55  68 CALM      30.00F VSB 1/2
FORT WAYNE     PTCLDY    69  68  96 S5        30.01S FOG
HUNTINGTON*    CLEAR    N/A N/A N/A CALM      30.00S HAZE
PERU/GRISSOM   CLEAR     69  69 100 S3        29.99S FOG
MARION*        PTCLDY    67  67 100 CALM      30.02S FOG

$$
INZ028>050-231200-
CENTRAL INDIANA

CITY           SKY/WX    TMP DP  RH WIND       PRES   REMARKS
LAFAYETTE      FOG       70  70 100 CALM      29.99S VSB 1
KOKOMO*        CLEAR     70  64  83 CALM      30.01S
MUNCIE*        CLOUDY    71  69  93 CALM      30.02S
INDIANAPOLIS   PTCLDY    73  70  90 CALM      30.02R

$$
MIZ043>046-050>051-056>058-064>065-071>073-077>080-231200-
SOUTHWEST LOWER MICHIGAN

CITY           SKY/WX    TMP DP  RH WIND       PRES   REMARKS
BATTLE CREEK   CLEAR     64  64 100 CALM      30.01S
BENTON HARBOR  CLEAR     67  65  93 CALM      29.98S FOG
COLDWATER*     FOG       65  65 100 CALM      30.01R VSB<1/4
HOLLAND        FOG       64  63  96 CALM      30.00S VSB 3/4
GRAND RAPIDS   PTCLDY    65  63  93 CALM      30.01R FOG
KALAMAZOO      CLEAR     65  63  93 CALM      30.00S
STURGIS*       FOG       65  65 100 CALM      30.00S VSB<1/4
THREE RIVERS*  FOG       65  64  97 CALM      30.01R VSB<1/4

$$
OHZ001>008-015>018-024>025-231200-
NORTHWEST OHIO

CITY           SKY/WX    TMP DP  RH WIND       PRES   REMARKS
WAUSEON*       FAIR      68  68 100 CALM      30.00S FOG
DEFIANCE       PTCLDY    72  68  87 CALM      30.00F FOG
FINDLAY        CLEAR     73  69  87 CALM      30.00S FOG
TOLEDO EXPRESS CLEAR     70  70 100 CALM      29.99S
TOLEDO METCALF CLEAR     73  72  96 SW6       30.00R
LIMA           PTCLDY    70  70 100 S3        30.02S FOG

$$
AND FOR LAKE MICHIGAN COASTAL AND OPEN LAKE BUOY OBSERVATIONS

STATION/POSITION TEMP    WIND        PRES    VSBY  WAVE
                 AIR SEA DIR/SP/G                  HT/PER
                 (F)     (DEG/KT/KT) (MB)    (MI)  (FT/S)
CALUMET HARBOR    79     240/  2/  5 1014.6F
MICHIGAN CITY     77     180/  5/  6   N/A
BURNS HARBOR      78     220/  5/  6 1015.9R
SAINT JOSEPH      73     160/  2/  2 1016.3R
SOUTH LAKE BUOY   75 73  140/  2/  2 1014.5R         0
4 MI NW BRIDGMAN  76 75  160/  2/  4 1014.9R         0
MICHIGAN CITY     76 74  220/  4/  6   N/A           0

$$
&&




USA.gov is the U.S. government's official web portal to all federal, state and local government web resources and services.